Location: DARK SKY Beskydy - Park tmavé oblohy, www.darkskybeskydy.cz
(49.4926°N, 18.5016°E)
Time: 14:15:00
(UTC+01:00)

Vanguard 1 - Pass Details

Date: 15 November 2025
Orbit: 650 x 3821 km, 34.2° (Epoch: 07 December)

Event Time Altitude Azimuth Distance (km) Brightness Sun altitude
Rises 22:58:36 0° 280° (W) 7,942 14.9 -58.6°
Reaches altitude 10° 23:06:06 10° 268° (W) 6,723 14.3 -58.8°
Enters shadow 23:12:47 18° 253° (WSW) 5,726 13.8 -59.0°
